When you browse on this site, cookies collect data to enhance your experience and personalize the content and advertising you see.
Visit our Privacy Policy to learn more. By continuing to use the site, you agree to this use of cookies and data.
  • In Austria
  • List of Countries
  • For 7 days
  • Water Temperature
  • Satellite Maps
  • Weather Map
  • News
  • Weather Widgets
  • user-avatar
    Login

    Hourly Weather Kvandzhu

    Today, 25 May, Saturday

    Time Temperature Precipitation Wind Pressure Humidity
    00:00 +17°C° 0 mm 0 mps 756 mmHg 73%
    01:00 +16°C° 0 mm 0 mps 756 mmHg 72%
    02:00 +16°C° 0 mm 0 mps 756 mmHg 69%
    03:00 +16°C° 0 mm 0 mps 756 mmHg 67%
    04:00 +16°C° 0 mm 0 mps 756 mmHg 65%
    05:00 +16°C° 0 mm 0 mps 756 mmHg 63%
    06:00 +21°C° 0 mm 1 mps 757 mmHg 57%
    07:00 +23°C° 0 mm 1 mps 757 mmHg 51%
    08:00 +26°C° 0 mm 1 mps 758 mmHg 41%
    09:00 +28°C° 0 mm 1 mps 758 mmHg 38%
    10:00 +30°C° 0 mm 2 mps 758 mmHg 34%
    11:00 +31°C° 0 mm 2 mps 757 mmHg 31%
    12:00 +31°C° 0 mm 2 mps 757 mmHg 32%
    13:00 +31°C° 0 mm 3 mps 757 mmHg 34%
    14:00 +30°C° 0 mm 3 mps 757 mmHg 36%
    15:00 +29°C° 0 mm 2 mps 757 mmHg 42%
    16:00 +27°C° 0 mm 2 mps 757 mmHg 49%
    17:00 +26°C° 0 mm 1 mps 757 mmHg 55%
    18:00 +24°C° 0 mm 1 mps 757 mmHg 57%
    19:00 +23°C° 0 mm 1 mps 757 mmHg 60%
    20:00 +20°C° 0 mm 0 mps 757 mmHg 62%
    21:00 +19°C° 0 mm 0 mps 757 mmHg 62%
    22:00 +21°C° 0 mm 1 mps 758 mmHg 62%
    23:00 +21°C° 0 mm 1 mps 758 mmHg 62%

    Tomorrow, 26 May, Sunday

    Time Temperature Precipitation Wind Pressure Humidity
    00:00 +21°C° 0 mm 1 mps 758 mmHg 61%
    01:00 +21°C° 0 mm 1 mps 758 mmHg 61%
    02:00 +20°C° 0 mm 1 mps 758 mmHg 60%
    03:00 +20°C° 0 mm 1 mps 758 mmHg 61%
    04:00 +19°C° 0 mm 1 mps 758 mmHg 62%
    05:00 +19°C° 0 mm 1 mps 758 mmHg 64%
    06:00 +20°C° 0 mm 2 mps 758 mmHg 59%
    07:00 +23°C° 0 mm 2 mps 758 mmHg 55%
    08:00 +25°C° 0 mm 3 mps 758 mmHg 51%
    09:00 +27°C° 0 mm 3 mps 758 mmHg 46%
    10:00 +29°C° 0 mm 4 mps 758 mmHg 41%
    11:00 +30°C° 0 mm 5 mps 758 mmHg 36%
    12:00 +30°C° 0 mm 5 mps 757 mmHg 36%
    13:00 +30°C° 0 mm 5 mps 757 mmHg 37%
    14:00 +30°C° 0 mm 5 mps 757 mmHg 37%
    15:00 +29°C° 0 mm 5 mps 756 mmHg 44%
    16:00 +27°C° 0 mm 4 mps 756 mmHg 50%
    17:00 +26°C° 0 mm 4 mps 756 mmHg 57%
    18:00 +24°C° 0 mm 3 mps 756 mmHg 66%
    19:00 +21°C° 0 mm 3 mps 756 mmHg 76%
    20:00 +20°C° 0 mm 2 mps 756 mmHg 85%
    21:00 +19°C° 0 mm 2 mps 756 mmHg 87%
    22:00 +19°C° 0 mm 2 mps 756 mmHg 90%
    23:00 +19°C° 0 mm 2 mps 755 mmHg 92%

    Day after tomorrow, 27 May, Monday

    Time Temperature Precipitation Wind Pressure Humidity
    00:00 +19°C° 0 mm 3 mps 755 mmHg 93%
    01:00 +19°C° 0 mm 3 mps 755 mmHg 93%
    02:00 +19°C° 0 mm 3 mps 754 mmHg 93%
    03:00 +19°C° 0 mm 3 mps 754 mmHg 93%
    04:00 +19°C° 0 mm 3 mps 754 mmHg 93%
    05:00 +19°C° 0 mm 3 mps 754 mmHg 93%
    06:00 +21°C° 0 mm 4 mps 753 mmHg 85%
    07:00 +22°C° 0 mm 6 mps 753 mmHg 76%
    08:00 +24°C° 0 mm 7 mps 753 mmHg 68%
    09:00 +23°C° 0.7 mm 7 mps 752 mmHg 75%
    10:00 +21°C° 0.7 mm 6 mps 752 mmHg 82%
    11:00 +20°C° 0.7 mm 6 mps 752 mmHg 89%
    12:00 +20°C° 6.1 mm 5 mps 751 mmHg 91%
    13:00 +20°C° 6.1 mm 5 mps 751 mmHg 93%
    14:00 +20°C° 6.1 mm 5 mps 750 mmHg 94%
    15:00 +20°C° 4.4 mm 4 mps 750 mmHg 95%
    16:00 +20°C° 4.4 mm 4 mps 750 mmHg 95%
    17:00 +20°C° 4.4 mm 4 mps 750 mmHg 95%
    18:00 +19°C° 2.9 mm 3 mps 750 mmHg 95%
    19:00 +19°C° 2.9 mm 3 mps 750 mmHg 96%
    20:00 +19°C° 2.9 mm 2 mps 750 mmHg 96%
    21:00 +19°C° 0 mm 2 mps 751 mmHg 94%
    22:00 +18°C° 0 mm 3 mps 751 mmHg 93%
    23:00 +17°C° 0 mm 4 mps 751 mmHg 91%

    28 May, Tuesday

    Time Temperature Precipitation Wind Pressure Humidity
    00:00 +16°C° 0 mm 3 mps 752 mmHg 88%
    01:00 +14°C° 0 mm 3 mps 752 mmHg 84%
    02:00 +13°C° 0 mm 3 mps 752 mmHg 81%
    03:00 +13°C° 0 mm 3 mps 752 mmHg 80%
    04:00 +13°C° 0 mm 3 mps 753 mmHg 79%
    05:00 +13°C° 0 mm 3 mps 753 mmHg 78%
    06:00 +15°C° 0 mm 4 mps 754 mmHg 67%
    07:00 +17°C° 0 mm 5 mps 754 mmHg 56%
    08:00 +20°C° 0 mm 6 mps 755 mmHg 46%
    09:00 +22°C° 0 mm 6 mps 755 mmHg 40%
    10:00 +24°C° 0 mm 6 mps 755 mmHg 35%
    11:00 +26°C° 0 mm 7 mps 755 mmHg 29%
    12:00 +27°C° 0 mm 6 mps 755 mmHg 30%
    13:00 +27°C° 0 mm 6 mps 755 mmHg 31%
    14:00 +27°C° 0 mm 5 mps 755 mmHg 31%
    15:00 +26°C° 0 mm 5 mps 755 mmHg 36%
    16:00 +25°C° 0 mm 4 mps 755 mmHg 41%
    17:00 +24°C° 0 mm 3 mps 755 mmHg 47%
    18:00 +21°C° 0 mm 3 mps 755 mmHg 50%
    19:00 +18°C° 0 mm 2 mps 756 mmHg 53%
    20:00 +16°C° 0 mm 1 mps 756 mmHg 57%
    21:00 +15°C° 0 mm 1 mps 756 mmHg 58%
    22:00 +14°C° 0 mm 1 mps 756 mmHg 59%
    23:00 +14°C° 0 mm 1 mps 756 mmHg 61%

    29 May, Wednesday

    Time Temperature Precipitation Wind Pressure Humidity
    00:00 +13°C° 0 mm 1 mps 756 mmHg 63%
    01:00 +13°C° 0 mm 1 mps 756 mmHg 66%
    02:00 +12°C° 0 mm 1 mps 755 mmHg 68%
    03:00 +13°C° 0 mm 1 mps 755 mmHg 68%
    04:00 +13°C° 0 mm 1 mps 755 mmHg 68%
    05:00 +13°C° 0 mm 1 mps 755 mmHg 68%
    06:00 +16°C° 0 mm 1 mps 755 mmHg 61%
    07:00 +20°C° 0 mm 1 mps 755 mmHg 53%
    08:00 +23°C° 0 mm 1 mps 756 mmHg 45%
    09:00 +25°C° 0 mm 1 mps 755 mmHg 40%
    10:00 +26°C° 0 mm 0 mps 755 mmHg 35%
    11:00 +28°C° 0 mm 0 mps 755 mmHg 31%
    12:00 +30°C° 0 mm 1 mps 755 mmHg 31%
    13:00 +30°C° 0 mm 1 mps 754 mmHg 32%
    14:00 +30°C° 0 mm 2 mps 754 mmHg 32%
    15:00 +29°C° 0 mm 2 mps 754 mmHg 39%
    16:00 +27°C° 0 mm 2 mps 754 mmHg 45%
    17:00 +26°C° 0 mm 2 mps 754 mmHg 52%
    18:00 +24°C° 0 mm 1 mps 754 mmHg 56%
    19:00 +21°C° 0 mm 1 mps 754 mmHg 61%
    20:00 +17°C° 0 mm 0 mps 754 mmHg 66%
    21:00 +17°C° 0 mm 0 mps 754 mmHg 65%
    22:00 +16°C° 0 mm 0 mps 754 mmHg 65%
    23:00 +16°C° 0 mm 0 mps 754 mmHg 64%

    30 May, Thursday

    Time Temperature Precipitation Wind Pressure Humidity
    00:00 +16°C° 0 mm 0 mps 754 mmHg 64%
    01:00 +16°C° 0 mm 0 mps 753 mmHg 64%
    02:00 +16°C° 0 mm 0 mps 753 mmHg 64%
    03:00 +16°C° 0 mm 0 mps 753 mmHg 65%
    04:00 +16°C° 0 mm 0 mps 753 mmHg 66%
    05:00 +15°C° 0 mm 0 mps 753 mmHg 67%
    06:00 +18°C° 0 mm 0 mps 753 mmHg 60%
    07:00 +21°C° 0 mm 0 mps 753 mmHg 53%
    08:00 +24°C° 0 mm 0 mps 753 mmHg 46%
    09:00 +25°C° 0 mm 0 mps 753 mmHg 41%
    10:00 +29°C° 0 mm 1 mps 753 mmHg 37%
    11:00 +30°C° 0 mm 2 mps 753 mmHg 32%
    12:00 +30°C° 0 mm 3 mps 752 mmHg 33%
    13:00 +29°C° 0 mm 3 mps 752 mmHg 33%
    14:00 +29°C° 0 mm 4 mps 752 mmHg 34%
    15:00 +27°C° 0 mm 3 mps 752 mmHg 38%
    16:00 +26°C° 0 mm 3 mps 751 mmHg 42%
    17:00 +25°C° 0 mm 2 mps 751 mmHg 46%
    18:00 +23°C° 0 mm 2 mps 751 mmHg 49%
    19:00 +21°C° 0 mm 1 mps 752 mmHg 52%
    20:00 +17°C° 0 mm 0 mps 752 mmHg 55%
    21:00 +17°C° 0 mm 0 mps 752 mmHg 56%
    22:00 +17°C° 0 mm 0 mps 752 mmHg 56%
    23:00 +16°C° 0 mm 0 mps 752 mmHg 57%
    Show more